Terminal Aerodrome Forecast
Issued by NWS Boston, MA

Home | Current Version | Previous Version | Text Only | Print | Product List | Glossary On
Versions: 1 2 3 4 5 6 7 8 9 10 11 12 13 14 15 16 17 18 19 20 21 22 23 24 25 26 27 28 29 30 31 32 33 34 35 36 37 38 39 40 41 42 43 44
797
FTUS41 KBOX 011121
TAFORH
TAF
KORH 011121Z 0112/0212 05009KT 3/4SM -DZ BR VV002
     FM011500 05009KT 2SM BR VCSH OVC008
     FM011900 04009KT 3SM -SHRA BR OVC010
     FM020600 03007KT P6SM VCSH OVC010=

USA.gov is the U.S. government's official web portal to all federal, state and local government web resources and services.